Starlink 32398

operational
NORAD ID: 61624 Int'l Des: 2024-191 Owner: SPXS Country: US Constellation: starlink
LEOCIRCULAR

About Starlink 32398

Description loading...

Live Position

Loading 3D Globe...

Upcoming Passes

Altitude History

Altitude vs Time

uPlot chart will show altitude changes over time

Two-Line Element Set

1 61624U 24191D 25304.33933340 .00000295 00000-0 20229-4 0 9993
2 61624 43.0014 165.0363 0000907 293.0330 67.0426 15.27577599 57759
Epoch: Oct 31, 2025 • Age: 31 hours

Current Status

Altitude 491.8 km
Velocity 7.62 km/s
Sub-Earth Point -32.42°S, 114.72°E
Launch Date Oct 23, 2024
Age 1 years
Type internet

Technical Details

Classification Payload
Mass 730.00 kg
Dry Mass 700.00 kg
Total Mass 730.00 kg
Length 0.30 m
Diameter 4.10 m
Span 29.00 m
Shape Box + pan
Manufacturer SPXS
Bus Type Starlink V2M
Phase Status In Orbit
Owner/State SPXS/US

Large Constellations

Loading constellations...